Weather History for Ottumwa, IA

Change the Weather History Date:

Sunday, January 15, 2012

  Actual Average Record
Temperature  
Mean Temperature 28 °F 22 °F  
Max Temperature 44 °F 31 °F 59 °F (1990)
Min Temperature 12 °F 13 °F -20 °F (1979)
Degree Days  
Heating Degree Days 37 43  
Month to date heating degree days 521 639  
Since 1 July heating degree days 2706 3144  
Cooling Degree Days 0 0  
Month to date cooling degree days 0 0  
Year to date cooling degree days 0 0  
Moisture  
Dew Point 23 °F    
Average Humidity 77    
Maximum Humidity 100    
Minimum Humidity 54    
Precipitation  
Precipitation 0.00 in 0.03 in 0.86 in (1969)
Month to date precipitation 0.05 0.47  
Year to date precipitation 0.05 0.47  
Sea Level Pressure  
Sea Level Pressure 30.04 in    
Wind  
Wind Speed 13 mph (SSE)    
Max Wind Speed 26 mph    
Max Gust Speed 33 mph    
Visibility 9 miles    
Events      
T = Trace of Precipitation, MM = Missing Value Source: NWS Daily Summary

Daily Weather History Graph

Daily Weather History Graph

Search for Another Location

Airport:

Trip Planner

Search our weather history database for the weather conditions in past years. The results will help you decide how hot, cold, wet, or windy it might be!

Date:

Astronomy

Jan. 15, 2012 Rise Set
Actual Time 7:32 AM CST 5:05 PM CST
Civil Twilight 7:02 AM CST 5:35 PM CST
Nautical Twilight 6:28 AM CST 6:09 PM CST
Astronomical Twilight 5:55 AM CST 6:42 PM CST
Moon No Moon Rise 10:46 AM CST (1/15)
Length of Visible Light 10h 33m
Length of Day
9h 32m
Waning Gibbous, 57% of the Moon is Illuminated
Jan 15
Waning Gibbous
Jan 16
Last Quarter
Jan 23
New
Jan 30
First Quarter
Feb 7
Full

Hourly Weather History & Observations

Time (CST) Temp. Windchill Dew Point Humidity Pressure Visibility Wind Dir Wind Speed Gust Speed Precip Events Conditions
12:53 AM 19.0 °F 12.3 °F 18.0 °F 96% 30.23 in 5.0 mi South 4.6 mph - N/A   Clear
1:09 AM 15.8 °F 8.6 °F 15.8 °F 100% 30.19 in 1.8 mi South 4.6 mph - N/A   Clear
1:24 AM 15.8 °F 7.2 °F 14.0 °F 93% 30.18 in 3.0 mi South 5.8 mph - N/A   Clear
1:53 AM 16.0 °F 8.8 °F 15.1 °F 96% 30.22 in 7.0 mi SSE 4.6 mph - N/A   Clear
2:53 AM 17.1 °F 8.7 °F 15.1 °F 92% 30.23 in 7.0 mi South 5.8 mph - N/A   Clear
3:53 AM 14.0 °F 5.1 °F 12.0 °F 92% 30.22 in 7.0 mi SSE 5.8 mph - N/A   Clear
4:53 AM 16.0 °F 7.4 °F 14.0 °F 92% 30.21 in 8.0 mi SSE 5.8 mph - N/A   Clear
5:53 AM 21.9 °F 13.4 °F 19.0 °F 89% 30.20 in 10.0 mi SSE 6.9 mph - N/A   Clear
6:53 AM 21.9 °F 11.7 °F 19.0 °F 89% 30.19 in 10.0 mi SSE 9.2 mph - N/A   Clear
7:53 AM 24.1 °F 14.4 °F 19.9 °F 84% 30.19 in 10.0 mi SSE 9.2 mph - N/A   Clear
8:53 AM 25.0 °F 14.2 °F 19.9 °F 81% 30.17 in 10.0 mi SE 11.5 mph - N/A   Clear
9:53 AM 30.0 °F 19.1 °F 23.0 °F 75% 30.15 in 10.0 mi SSE 15.0 mph - N/A   Clear
10:53 AM 35.1 °F 24.8 °F 24.1 °F 64% 30.12 in 10.0 mi SSE 17.3 mph - N/A   Clear
11:53 AM 37.9 °F 28.2 °F 24.1 °F 57% 30.06 in 10.0 mi SSE 18.4 mph 28.8 mph N/A   Clear
12:53 PM 39.0 °F 28.5 °F 25.0 °F 57% 29.97 in 10.0 mi SSE 23.0 mph 31.1 mph N/A   Clear
1:53 PM 41.0 °F 31.4 °F 26.1 °F 55% 29.94 in 10.0 mi SSE 21.9 mph 32.2 mph N/A   Clear
2:53 PM 43.0 °F 34.2 °F 28.0 °F 56% 29.90 in 10.0 mi SSE 20.7 mph 27.6 mph N/A   Clear
3:53 PM 43.0 °F 34.2 °F 28.9 °F 58% 29.88 in 10.0 mi South 20.7 mph 26.5 mph N/A   Clear
4:53 PM 43.0 °F 35.7 °F 28.9 °F 58% 29.87 in 10.0 mi SSE 15.0 mph - N/A   Clear
5:53 PM 39.0 °F 33.4 °F 28.9 °F 67% 29.88 in 10.0 mi SSE 8.1 mph - N/A   Clear
6:53 PM 39.9 °F 33.4 °F 28.9 °F 65% 29.86 in 10.0 mi SSE 10.4 mph - N/A   Clear
7:53 PM 39.0 °F 31.8 °F 28.9 °F 67% 29.86 in 10.0 mi SSE 11.5 mph - N/A   Clear
8:53 PM 39.0 °F 31.4 °F 28.9 °F 67% 29.85 in 10.0 mi SSE 12.7 mph - N/A   Clear
9:53 PM 39.0 °F 30.3 °F 28.9 °F 67% 29.85 in 10.0 mi South 16.1 mph - N/A   Clear
10:53 PM 39.0 °F 31.0 °F 28.9 °F 67% 29.85 in 10.0 mi South 13.8 mph - N/A   Clear
11:53 PM 37.9 °F 30.0 °F 28.9 °F 70% 29.84 in 10.0 mi South 12.7 mph - N/A   Clear